Find Starlink 31303

NORAD ID: 59239 Int'l Des: 2024-049 Owner: SPXS Country: US Constellation: starlink operational
LEOCIRCULAR

实时位置

正在加载3D地球...

关于 Starlink 31303

正在加载描述...

即将过境

Passes for default location (London). Set your location on the main map for personalized predictions.

高度历史

Loading altitude history...

两行轨道根数

1 59239U 24049J 26132.98338075 .00004949 00000-0 18939-3 0 9993
2 59239 43.0041 129.5909 0001490 274.0229 86.0452 15.27555822122368
Epoch: May 12, 2026 • Age: 8 hours

当前状态

高度 486.8 km
速度 7.63 km/s
星下点 41.19°N, 151.03°W
发射日期 Mar 16, 2024
运行时间 2.1 years
类型 internet

技术详情

分类 Payload
质量 730.00 kg
干质量 700.00 kg
总质量 730.00 kg
长度 0.30 m
直径 4.10 m
跨度 29.00 m
形状 Box + pan
制造商 SPXS
平台类型 Starlink V2M
阶段状态 In Orbit
所有者/国家 SPXS/US

Most Searched